Miscellaneous Local Product
Issued by NWS North Platte, NE

Home | Current Version | Previous Version | Text Only | Print | Product List | Glossary On
Versions: 1 2 3 4 5 6 7 8 9 10 11 12 13 14 15 16 17 18 19 20 21 22 23 24 25 26 27 28 29 30 31 32 33 34 35 36 37 38 39 40 41 42 43 44 45 46 47 48 49 50
000
AXUS43 KLBF 290910
MISLBF


WESTERN AND NORTH CENTRAL NEBRASKA HOURLY WEATHER ROUNDUP
NATIONAL WEATHER SERVICE NORTH PLATTE NE
300 AM CST SAT NOV 29 2014

***STATIONS NOT REPORTING VARIABLES SUCH AS SKY/WEATHER OR
PRESSURE ARE PROVIDED BY THE NEBRASKA DEPARTMENT OF
ROADS...RAWS...AND APRS NETWORKS...AND ARE NOT UNDER
NATIONAL WEATHER SERVICE QUALITY CONTROL***

...OBSERVATIONS IN AND NEAR THE EASTERN PANHANDLE OF NEBRASKA...

CITY           SKY/WX    TMP DP  RH WIND       PRES   REMARKS
PINE RIDGE     CLEAR     53  19  26 SW13      29.54R
CHADRON        PTCLDY   N/A N/A N/A W8        29.56S
ALLIANCE       MOCLDY    34  20  56 SE7       29.63S WCI  28
SIDNEY         CLOUDY    37  20  50 W6        29.69R WCI  32
WHITECLAY        N/A     50  17  26 SW9         N/A
CRESCENT LAKE    N/A     46  19  33 CALM        N/A
LISCO            N/A     34  20  57 E5          N/A  WCI  30
BIG SPRINGS      N/A     31  26  80 SW6         N/A  WCI  25
$$

...OBSERVATIONS IN NORTH CENTRAL NEBRASKA...

CITY           SKY/WX    TMP DP  RH WIND       PRES   REMARKS
VALENTINE      CLEAR     38  22  52 SW8       29.52S WCI  32
THEDFORD       PTCLDY    49  19  30 W10       29.60S
AINSWORTH      CLEAR     46  20  35 SW13      29.53R
O`NEILL        CLEAR     45  24  42 W10       29.51F
ORD            CLEAR     51  20  29 W13       29.56S
BROKEN BOW     CLEAR     49  22  34 W8        29.60S
BROWNLEE         N/A     52  18  25 SW17        N/A
SPRINGVIEW       N/A     26  23  87 CALM        N/A
BREWSTER         N/A     44  17  33 W3          N/A
SARGENT          N/A     40  23  50 NW3         N/A
COMSTOCK         N/A     47  21  34 W10         N/A
CHAMBERS         N/A     45  22  39 SW3         N/A
EWING            N/A     42  25  51 CALM        N/A
$$

...OBSERVATIONS IN SOUTHWEST NEBRASKA AND FAR NORTHEAST COLORADO...

CITY           SKY/WX    TMP DP  RH WIND       PRES   REMARKS
WRAY           FAIR      35  26  67 W8        29.68S WCI  29
HOLYOKE        FAIR      37  27  65 W12G20    29.68R WCI  30
IMPERIAL       CLOUDY    34  19  54 NW7       29.65F WCI  28
OGALLALA       MOCLDY    27  23  84 W5        29.66S WCI  22
NORTH PLATTE   MOCLDY    23  19  85 W5        29.64S WCI  17
MCCOOK         CLOUDY    31  15  52 NW7       29.64R WCI  24
LEXINGTON      MOCLDY    33  20  59 W7        29.63S WCI  27
PAXTON           N/A     31  25  78 CALM        N/A
BRADY            N/A     33  24  69 CALM        N/A
GOTHENBURG       N/A     37  22  54 W5          N/A  WCI  33
CALLAWAY         N/A     48  22  35 W12         N/A
$$

...NORTH PLATTE AREA...

CITY           SKY/WX    TMP DP  RH WIND       PRES   REMARKS
AIRPORT        MOCLDY    23  19  85 W5        29.64S WCI  17
DOWNTOWN         N/A     32  23  70 CALM        N/A
$$

...SOME WEATHER OBSERVATIONS FROM AROUND THE REGION...

CITY           SKY/WX    TMP DP  RH WIND       PRES   REMARKS
DENVER         MOCLDY    47  11  23 S18       29.74F
LARAMIE        CLEAR     35  12  38 S12       29.78S WCI  27
CHEYENNE       PTCLDY    47  12  24 W17G26    29.71F
SCOTTSBLUFF    MOCLDY    36  22  56 CALM      29.63S
RAPID CITY     CLEAR     53  16  23 W12       29.46R
PIERRE         CLEAR     24  22  91 CALM      29.41S
WINNER         FAIR      53  21  28 SW16      29.45S
SIOUX FALLS    CLEAR     21  19  92 E3        29.47F
OMAHA          PTCLDY    35  31  85 SE12      29.58F WCI  27
GRAND ISLAND   PTCLDY    40  21  46 SW10      29.59S WCI  33
KANSAS CITY    CLOUDY    51  42  71 SW14      29.67F
WICHITA        PTCLDY    47  41  80 S13       29.67F
HAYS           CLOUDY    36  19  51 W3        29.63F
LIBERAL        MOCLDY    39  16  38 W15       29.72R WCI  31
GOODLAND       MOCLDY    43  19  38 W12       29.68R
$$



USA.gov is the U.S. government's official web portal to all federal, state and local government web resources and services.